Radiation Dose at Monitoring Post of Fukushima Daini Nuclear Power Station
Date,Time,MP-1(microSv/h),MP-2(microSv/h),MP-3(microSv/h),MP-4(microSv/h),MP-5(microSv/h),MP-6(microSv/h),MP-7(microSv/h),Wind Direction,Wind Velocity(m/s),Rain
2022/04/13,00:00,0.160,0.145,0.232,0.223,0.223,0.125,0.080,west-northwest,1.1,No
2022/04/13,00:10,0.158,0.145,0.230,0.223,0.224,0.125,0.080,south-southeast,0.7,No
2022/04/13,00:20,0.158,0.146,0.232,0.224,0.222,0.125,0.080,south-southeast,0.8,No
2022/04/13,00:30,0.160,0.145,0.231,0.223,0.225,0.126,0.081,southeast,1.9,No
2022/04/13,00:40,0.159,0.144,0.232,0.225,0.224,0.125,0.080,south,2.2,No
2022/04/13,00:50,0.160,0.144,0.232,0.224,0.224,0.126,0.081,south,1.9,No
2022/04/13,01:00,0.159,0.146,0.231,0.225,0.223,0.126,0.080,south,1.9,No
2022/04/13,01:10,0.159,0.144,0.232,0.223,0.224,0.126,0.080,south,1.6,No
2022/04/13,01:20,0.160,0.145,0.232,0.224,0.224,0.125,0.080,south-southwest,2.4,No
2022/04/13,01:30,0.160,0.144,0.231,0.225,0.224,0.126,0.081,south-southwest,2.5,No
2022/04/13,01:40,0.161,0.145,0.232,0.223,0.225,0.126,0.081,south-southwest,2.5,No
2022/04/13,01:50,0.159,0.146,0.231,0.224,0.225,0.126,0.080,south,2.9,No
2022/04/13,02:00,0.161,0.145,0.233,0.224,0.225,0.127,0.080,south-southwest,3.0,No
2022/04/13,02:10,0.159,0.145,0.231,0.223,0.224,0.126,0.081,south-southwest,2.5,No
2022/04/13,02:20,0.160,0.145,0.232,0.224,0.226,0.125,0.080,south-southwest,3.2,No
2022/04/13,02:30,0.161,0.145,0.232,0.224,0.223,0.126,0.080,south-southwest,2.9,No
2022/04/13,02:40,0.160,0.145,0.231,0.224,0.226,0.127,0.081,south-southwest,2.7,No
2022/04/13,02:50,0.159,0.145,0.231,0.223,0.224,0.125,0.081,southwest,3.0,No
2022/04/13,03:00,0.159,0.145,0.232,0.224,0.224,0.126,0.080,west-southwest,2.4,No
2022/04/13,03:10,0.160,0.146,0.231,0.224,0.224,0.127,0.080,west,1.6,No
2022/04/13,03:20,0.159,0.144,0.232,0.224,0.225,0.126,0.080,west,1.4,No
2022/04/13,03:30,0.161,0.145,0.232,0.224,0.225,0.126,0.080,west-northwest,1.6,No
2022/04/13,03:40,0.159,0.146,0.231,0.224,0.224,0.126,0.080,west-northwest,2.1,No
2022/04/13,03:50,0.159,0.144,0.232,0.223,0.225,0.125,0.080,west-northwest,1.6,No
2022/04/13,04:00,0.160,0.145,0.231,0.225,0.224,0.125,0.080,north-northwest,1.6,No
2022/04/13,04:10,0.160,0.146,0.231,0.224,0.226,0.126,0.080,northwest,1.6,No
2022/04/13,04:20,0.159,0.146,0.232,0.223,0.223,0.126,0.081,northwest,1.6,No
2022/04/13,04:30,0.161,0.146,0.232,0.224,0.225,0.126,0.081,west-northwest,1.0,No
2022/04/13,04:40,0.160,0.145,0.232,0.224,0.226,0.127,0.081,-,CALM,No
2022/04/13,04:50,0.161,0.146,0.232,0.224,0.224,0.126,0.082,south-southwest,0.8,No
2022/04/13,05:00,0.161,0.146,0.232,0.225,0.225,0.127,0.081,south,0.7,No
2022/04/13,05:10,0.160,0.146,0.231,0.224,0.224,0.127,0.082,south,0.5,No
2022/04/13,05:20,0.160,0.147,0.233,0.225,0.226,0.127,0.082,south,1.3,No
2022/04/13,05:30,0.161,0.146,0.232,0.225,0.225,0.127,0.083,south-southwest,1.0,No
2022/04/13,05:40,0.161,0.146,0.232,0.225,0.225,0.127,0.082,south-southwest,0.7,No
2022/04/13,05:50,0.162,0.146,0.232,0.225,0.228,0.127,0.082,south-southwest,0.8,No
2022/04/13,06:00,0.160,0.146,0.233,0.225,0.223,0.126,0.081,southeast,1.0,No
2022/04/13,06:10,0.161,0.146,0.232,0.225,0.226,0.126,0.081,east-southeast,0.7,No
2022/04/13,06:20,0.160,0.147,0.233,0.225,0.224,0.127,0.082,southeast,0.7,No
2022/04/13,06:30,0.159,0.145,0.230,0.224,0.225,0.126,0.080,east-southeast,0.5,No
2022/04/13,06:40,0.160,0.145,0.233,0.225,0.224,0.125,0.081,east-southeast,0.8,No
2022/04/13,06:50,0.159,0.146,0.232,0.224,0.225,0.126,0.080,east-southeast,1.0,No
2022/04/13,07:00,0.161,0.145,0.232,0.225,0.224,0.126,0.081,east-southeast,1.1,No
2022/04/13,07:10,0.160,0.146,0.232,0.223,0.225,0.126,0.081,east-northeast,1.3,No
2022/04/13,07:20,0.161,0.144,0.231,0.224,0.224,0.126,0.081,east,1.3,No
2022/04/13,07:30,0.159,0.145,0.230,0.223,0.224,0.126,0.081,east,1.3,No
2022/04/13,07:40,0.161,0.145,0.232,0.225,0.224,0.125,0.081,east-southeast,1.3,No
2022/04/13,07:50,0.159,0.146,0.231,0.222,0.225,0.127,0.081,southeast,1.3,No
2022/04/13,08:00,0.159,0.144,0.229,0.224,0.223,0.126,0.081,south-southeast,1.3,No
2022/04/13,08:10,0.159,0.145,0.231,0.224,0.226,0.126,0.080,south-southeast,1.3,No
2022/04/13,08:20,0.159,0.145,0.230,0.221,0.224,0.126,0.080,south-southwest,1.6,No
2022/04/13,08:30,0.159,0.144,0.229,0.221,0.223,0.126,0.080,south,1.9,No
2022/04/13,08:40,0.158,0.145,0.229,0.224,0.225,0.126,0.081,south-southeast,1.6,No
2022/04/13,08:50,0.158,0.145,0.232,0.224,0.222,0.126,0.080,southeast,1.3,No
2022/04/13,09:00,0.160,0.144,0.231,0.222,0.223,0.126,0.081,southeast,2.1,No
2022/04/13,09:10,0.158,0.144,0.231,0.221,0.225,0.126,0.080,south-southeast,1.9,No
2022/04/13,09:20,0.158,0.145,0.231,0.223,0.224,0.125,0.079,south-southeast,2.1,No
2022/04/13,09:30,0.160,0.145,0.230,0.224,0.222,0.125,0.081,south,1.6,No
2022/04/13,09:40,0.159,0.145,0.228,0.222,0.222,0.126,0.080,south-southeast,1.4,No
2022/04/13,09:50,0.158,0.144,0.229,0.222,0.223,0.124,0.079,south-southeast,2.4,No
2022/04/13,10:00,0.159,0.144,0.228,0.221,0.225,0.126,0.080,southeast,2.2,No
2022/04/13,10:10,0.159,0.145,0.228,0.221,0.225,0.126,0.081,southeast,3.2,No
2022/04/13,10:20,0.159,0.145,0.230,0.221,0.223,0.126,0.081,southeast,3.8,No
2022/04/13,10:30,0.157,0.145,0.231,0.222,0.223,0.126,0.081,south-southeast,4.4,No
2022/04/13,10:40,0.158,0.144,0.231,0.222,0.222,0.126,0.081,south-southeast,4.9,No
2022/04/13,10:50,0.160,0.145,0.230,0.224,0.221,0.126,0.080,south-southeast,3.5,No
2022/04/13,11:00,0.159,0.145,0.233,0.225,0.224,0.126,0.081,south-southeast,4.1,No
2022/04/13,11:10,0.158,0.145,0.232,0.224,0.226,0.125,0.080,south-southeast,4.9,No
2022/04/13,11:20,0.157,0.143,0.232,0.221,0.224,0.125,0.079,south-southeast,4.1,No
2022/04/13,11:30,0.157,0.143,0.230,0.221,0.223,0.126,0.079,south-southeast,5.9,No
2022/04/13,11:40,0.158,0.143,0.230,0.222,0.221,0.125,0.080,south-southeast,6.1,No
2022/04/13,11:50,0.160,0.145,0.230,0.221,0.222,0.125,0.080,south-southeast,6.1,No
2022/04/13,12:00,0.159,0.145,0.228,0.225,0.222,0.124,0.079,south,7.7,No
2022/04/13,12:10,0.158,0.144,0.229,0.224,0.221,0.125,0.079,south-southeast,6.6,No
2022/04/13,12:20,0.156,0.143,0.229,0.224,0.221,0.126,0.081,south,6.4,No
2022/04/13,12:30,0.156,0.143,0.229,0.223,0.222,0.125,0.079,south-southeast,6.3,No
2022/04/13,12:40,0.157,0.144,0.230,0.221,0.224,0.125,0.079,south-southeast,7.5,No
2022/04/13,12:50,0.156,0.145,0.229,0.221,0.225,0.125,0.080,south,8.6,No
2022/04/13,13:00,0.159,0.145,0.228,0.224,0.224,0.125,0.079,south-southeast,6.8,No
2022/04/13,13:10,0.159,0.144,0.229,0.224,0.223,0.125,0.079,south-southeast,7.7,No
2022/04/13,13:20,0.159,0.143,0.233,0.223,0.223,0.126,0.079,south-southeast,6.9,No
2022/04/13,13:30,0.159,0.144,0.233,0.221,0.222,0.125,0.080,south-southeast,6.6,No
2022/04/13,13:40,0.158,0.145,0.231,0.222,0.220,0.125,0.079,south-southeast,6.2,No
2022/04/13,13:50,0.158,0.144,0.232,0.222,0.221,0.125,0.078,south-southeast,6.6,No
2022/04/13,14:00,0.157,0.144,0.230,0.222,0.222,0.125,0.079,south-southeast,6.6,No
2022/04/13,14:10,0.157,0.143,0.230,0.221,0.222,0.125,0.080,south-southeast,6.8,No
2022/04/13,14:20,0.157,0.143,0.229,0.223,0.222,0.125,0.080,south-southeast,4.0,No
2022/04/13,14:30,0.157,0.143,0.229,0.226,0.221,0.125,0.079,south-southeast,4.8,No
2022/04/13,14:40,0.159,0.145,0.229,0.224,0.222,0.125,0.080,south-southeast,4.8,No
2022/04/13,14:50,0.159,0.145,0.229,0.223,0.223,0.125,0.080,south,5.8,No
2022/04/13,15:00,0.159,0.144,0.233,0.221,0.222,0.125,0.079,south-southeast,6.2,No
2022/04/13,15:10,0.158,0.143,0.233,0.222,0.220,0.125,0.080,southeast,6.4,No
2022/04/13,15:20,0.156,0.145,0.232,0.225,0.221,0.124,0.080,south-southeast,6.8,No
2022/04/13,15:30,0.160,0.146,0.230,0.224,0.225,0.125,0.079,south-southeast,5.9,No
2022/04/13,15:40,0.160,0.144,0.232,0.223,0.226,0.125,0.080,south-southeast,5.9,No
2022/04/13,15:50,0.159,0.144,0.233,0.224,0.225,0.125,0.079,south-southeast,6.1,No
2022/04/13,16:00,0.156,0.145,0.231,0.226,0.222,0.124,0.080,south-southeast,5.5,No
2022/04/13,16:10,0.160,0.144,0.231,0.223,0.223,0.125,0.079,south-southeast,6.0,No
2022/04/13,16:20,0.159,0.144,0.233,0.223,0.222,0.125,0.079,south-southeast,5.5,No
2022/04/13,16:30,0.158,0.145,0.232,0.225,0.226,0.124,0.079,south-southeast,5.0,No
2022/04/13,16:40,0.159,0.144,0.230,0.223,0.224,0.126,0.079,south-southeast,3.5,No
2022/04/13,16:50,0.159,0.145,0.233,0.224,0.222,0.125,0.079,south-southeast,3.0,No
2022/04/13,17:00,0.158,0.145,0.230,0.225,0.222,0.124,0.078,south-southeast,1.0,No
2022/04/13,17:10,0.160,0.144,0.231,0.222,0.225,0.126,0.080,south,1.4,No
2022/04/13,17:20,0.159,0.145,0.232,0.226,0.224,0.125,0.079,south,1.1,No
2022/04/13,17:30,0.159,0.144,0.232,0.224,0.223,0.125,0.079,south,1.0,No
2022/04/13,17:40,0.160,0.145,0.233,0.224,0.226,0.125,0.079,south-southeast,1.0,No
2022/04/13,17:50,0.158,0.143,0.231,0.225,0.222,0.125,0.079,south-southeast,1.6,No
2022/04/13,18:00,0.159,0.145,0.232,0.222,0.224,0.126,0.079,south,1.3,No
2022/04/13,18:10,0.159,0.144,0.231,0.226,0.225,0.124,0.080,south-southeast,1.1,No
2022/04/13,18:20,0.159,0.144,0.232,0.224,0.224,0.125,0.079,south-southeast,0.8,No
2022/04/13,18:30,0.158,0.145,0.232,0.225,0.226,0.125,0.079,north,3.7,No
2022/04/13,18:40,0.158,0.144,0.232,0.223,0.224,0.125,0.079,north,7.5,No
2022/04/13,18:50,0.159,0.144,0.230,0.224,0.224,0.125,0.080,north,8.0,No
2022/04/13,19:00,0.159,0.144,0.233,0.223,0.224,0.125,0.079,north,7.9,No
2022/04/13,19:10,0.160,0.144,0.232,0.226,0.224,0.125,0.080,north,7.1,Yes
2022/04/13,19:20,0.159,0.145,0.233,0.224,0.224,0.126,0.080,north,7.0,No
2022/04/13,19:30,0.160,0.144,0.232,0.224,0.223,0.125,0.078,north-northwest,7.7,No
2022/04/13,19:40,0.159,0.144,0.232,0.225,0.225,0.126,0.080,north-northwest,6.9,Yes
2022/04/13,19:50,0.160,0.144,0.233,0.224,0.224,0.125,0.080,north-northwest,9.0,Yes
2022/04/13,20:00,0.160,0.145,0.231,0.226,0.226,0.125,0.079,north-northwest,8.8,Yes
2022/04/13,20:10,0.159,0.146,0.232,0.223,0.222,0.125,0.080,north-northwest,9.7,No
2022/04/13,20:20,0.160,0.145,0.233,0.225,0.225,0.125,0.080,north-northwest,10.0,No
2022/04/13,20:30,0.160,0.145,0.231,0.227,0.224,0.126,0.079,north-northwest,8.7,No
2022/04/13,20:40,0.159,0.144,0.233,0.224,0.225,0.125,0.079,north-northwest,8.9,No
2022/04/13,20:50,0.158,0.144,0.233,0.224,0.224,0.125,0.080,north-northwest,8.9,No
2022/04/13,21:00,0.159,0.145,0.233,0.225,0.223,0.125,0.079,north-northwest,7.6,No
2022/04/13,21:10,0.159,0.145,0.233,0.225,0.225,0.126,0.080,north-northwest,8.8,No
2022/04/13,21:20,0.159,0.144,0.232,0.225,0.222,0.126,0.080,north-northwest,7.9,No
2022/04/13,21:30,0.159,0.145,0.233,0.224,0.225,0.125,0.080,north-northwest,7.5,No
2022/04/13,21:40,0.160,0.144,0.233,0.224,0.224,0.125,0.080,north-northwest,7.6,No
2022/04/13,21:50,0.159,0.146,0.233,0.224,0.224,0.124,0.079,north-northwest,6.9,No
2022/04/13,22:00,0.159,0.144,0.232,0.224,0.225,0.126,0.081,north-northwest,5.8,No
2022/04/13,22:10,0.159,0.145,0.233,0.226,0.222,0.125,0.079,north-northwest,6.5,No
2022/04/13,22:20,0.159,0.146,0.231,0.225,0.225,0.125,0.080,north-northwest,6.1,No
2022/04/13,22:30,0.159,0.144,0.233,0.225,0.223,0.125,0.080,north-northwest,7.5,No
2022/04/13,22:40,0.158,0.145,0.232,0.225,0.224,0.125,0.079,north-northwest,7.8,No
2022/04/13,22:50,0.160,0.144,0.231,0.224,0.223,0.125,0.079,north-northwest,7.7,No
2022/04/13,23:00,0.158,0.144,0.231,0.225,0.224,0.125,0.080,north-northwest,7.3,No
2022/04/13,23:10,0.160,0.145,0.233,0.225,0.225,0.126,0.079,north-northwest,7.0,No
2022/04/13,23:20,0.160,0.144,0.231,0.223,0.223,0.125,0.079,north-northwest,6.9,No
2022/04/13,23:30,0.159,0.144,0.233,0.224,0.224,0.124,0.080,north-northwest,7.0,No
2022/04/13,23:40,0.159,0.144,0.232,0.224,0.225,0.125,0.079,north-northwest,6.3,No
2022/04/13,23:50,0.160,0.145,0.232,0.225,0.224,0.125,0.080,north-northwest,6.4,No
